FW8079 Weather Reports


time (UTC)temp
C
wind
direction
speed
KPH
gust
KPH
rain 1hr
cm
rain 24hr
cm
rain mn
cm
humidity
%
barometer
mb
20260510192601 25 203 3.2 9.7 0.00 0.00 0.00 54 1009.6
20260510192057 25 124 6.4 9.7 0.00 0.00 0.00 54 1009.6
20260510191554 25 243 6.4 14.5 0.00 0.00 0.00 53 1009.8
20260510191050 26 170 6.4 6.4 0.00 0.00 0.00 52 1009.8
20260510190542 25 156 6.4 8.0 0.00 0.00 0.00 53 1009.6
20260510190040 25 154 6.4 9.7 0.00 0.00 0.00 53 1009.8
20260510185536 26 223 3.2 6.4 0.00 0.00 0.00 52 1009.5
20260510185034 25 85 3.2 9.7 0.00 0.00 0.00 54 1009.6
20260510184531 25 106 3.2 6.4 0.00 0.00 0.00 53 1009.7
20260510184026 25 133 4.8 8.0 0.00 0.00 0.00 54 1009.9
20260510183522 25 127 9.7 14.5 0.00 0.00 0.00 52 1009.9
20260510183017 25 121 3.2 8.0 0.00 0.00 0.00 52 1009.7
20260510182514 25 122 4.8 14.5 0.00 0.00 0.00 52 1009.9
20260510182009 26 114 8.0 9.7 0.00 0.00 0.00 51 1009.9
20260510181508 25 46 3.2 14.5 0.00 0.00 0.00 51 1009.9
20260510181003 26 263 1.6 9.7 0.00 0.00 0.00 50 1010.2
20260510180500 25 233 3.2 3.2 0.00 0.00 0.00 50 1009.9
20260510175957 25 130 3.2 9.7 0.00 0.00 0.00 51 1010.2
20260510175453 25 251 3.2 8.0 0.00 0.00 0.00 50 1010.0
20260510174948 25 116 6.4 8.0 0.00 0.00 0.00 52 1010.1
20260510174447 25 107 6.4 6.4 0.00 0.00 0.00 53 1010.2
20260510173944 25 121 4.8 12.9 0.00 0.00 0.00 53 1009.9
20260510173439 25 184 4.8 6.4 0.00 0.00 0.00 51 1010.2
20260510172936 25 109 6.4 6.4 0.00 0.00 0.00 51 1010.1
20260510172431 24 112 6.4 9.7 0.00 0.00 0.00 52 1010.1
20260510171928 23 107 4.8 14.5 0.00 0.00 0.00 54 1010.1
20260510171425 23 176 3.2 11.3 0.00 0.00 0.00 55 1010.4
20260510170922 23 224 1.6 9.7 0.00 0.00 0.00 56 1010.1
20260510170419 23 131 14.5 19.3 0.00 0.00 0.00 55 1010.2
20260510165914 23 145 3.2 11.3 0.00 0.00 0.00 56 1010.4
20260510165410 23 169 3.2 12.9 0.00 0.00 0.00 58 1010.5
20260510164907 24 160 4.8 8.0 0.00 0.00 0.00 57 1010.6
20260510164404 23 181 3.2 8.0 0.00 0.00 0.00 59 1010.5
20260510163859 23 160 3.2 4.8 0.00 0.00 0.00 62 1010.5
20260510163355 23 120 8.0 8.0 0.00 0.00 0.00 64 1010.5
20260510162849 23 95 4.8 8.0 0.00 0.00 0.00 65 1010.7
20260510162347 23 153 3.2 6.4 0.00 0.00 0.00 65 1010.8
20260510161842 22 136 4.8 6.4 0.00 0.00 0.00 65 1010.7
20260510161338 22 164 6.4 6.4 0.00 0.00 0.00 66 1010.5
20260510160836 22 182 3.2 11.3 0.00 0.00 0.00 70 1010.6
20260510160333 22 311 6.4 6.4 0.00 0.00 0.00 71 1010.7
20260510155826 21 183 1.6 9.7 0.00 0.00 0.00 73 1010.7
20260510155324 21 141 4.8 4.8 0.00 0.00 0.00 72 1010.8
20260510154820 21 131 11.3 12.9 0.00 0.00 0.00 74 1010.8
20260510154315 21 91 1.6 8.0 0.00 0.00 0.00 75 1010.8
20260510153810 21 101 6.4 12.9 0.00 0.00 0.00 73 1010.8
20260510153306 21 113 6.4 11.3 0.00 0.00 0.00 74 1010.8
20260510152803 21 96 3.2 6.4 0.00 0.00 0.00 74 1010.7
20260510152300 21 110 8.0 11.3 0.00 0.00 0.00 75 1010.7
20260510151756 21 217 4.8 6.4 0.00 0.00 0.00 75 1010.7
20260510151255 21 101 8.0 8.0 0.00 0.00 0.00 76 1010.7
20260510150750 20 79 3.2 8.0 0.00 0.00 0.00 76 1010.7
20260510150246 20 104 1.6 9.7 0.00 0.00 0.00 78 1010.7
20260510145742 20 108 3.2 8.0 0.00 0.00 0.00 78 1010.3
20260510145239 21 134 6.4 6.4 0.00 0.00 0.00 76 1010.5
20260510144734 21 132 3.2 6.4 0.00 0.00 0.00 77 1010.2
20260510144232 21 104 3.2 6.4 0.00 0.00 0.00 77 1010.3
20260510143726 21 108 6.4 6.4 0.00 0.00 0.00 77 1010.1
20260510143223 21 155 0.0 4.8 0.00 0.00 0.00 78 1009.9
20260510142719 20 126 3.2 6.4 0.00 0.00 0.00 78 1009.8
20260510142216 20 107 4.8 6.4 0.00 0.00 0.00 80 1009.8
20260510141714 20 134 4.8 8.0 0.00 0.00 0.00 79 1010.1
20260510141212 21 203 3.2 6.4 0.00 0.00 0.00 77 1010.0
20260510140708 21 25 0.0 3.2 0.00 0.00 0.00 71 1010.2
20260510140207 20 350 3.2 4.8 0.00 0.00 0.00 74 1010.2
20260510135702 21 67 3.2 6.4 0.00 0.00 0.00 73 1010.0
20260510135158 20 57 0.0 3.2 0.00 0.00 0.00 73 1009.8
20260510134656 20 116 0.0 4.8 0.00 0.00 0.00 77 1010.0
20260510134153 20 349 0.0 4.8 0.00 0.00 0.00 76 1010.0
20260510133649 20 1 1.6 4.8 0.00 0.00 0.00 78 1009.9
20260510133144 19 322 1.6 3.2 0.00 0.00 0.00 80 1010.3
20260510132641 18 1 1.6 4.8 0.00 0.00 0.00 79 1010.1
20260510132139 18 118 3.2 4.8 0.00 0.00 0.00 83 1010.4
20260510131636 18 102 4.8 6.4 0.00 0.00 0.00 82 1010.4
20260510131134 18 182 3.2 4.8 0.00 0.00 0.00 83 1010.4
20260510130630 17 122 1.6 4.8 0.00 0.00 0.00 84 1010.3
20260510130127 17 115 4.8 6.4 0.00 0.00 0.00 85 1010.5
20260510125623 17 101 1.6 3.2 0.00 0.00 0.00 87 1010.8
20260510125120 17 64 1.6 3.2 0.00 0.00 0.00 87 1010.4
20260510124617 16 33 1.6 4.8 0.00 0.00 0.00 88 1010.5
20260510124114 16 17 3.2 6.4 0.00 0.00 0.00 89 1010.4
20260510123609 16 314 3.2 4.8 0.00 0.00 0.00 89 1010.3
20260510123105 16 328 1.6 6.4 0.00 0.00 0.00 90 1010.5
20260510122601 16 345 3.2 4.8 0.00 0.00 0.00 91 1010.3
20260510122057 15 325 3.2 4.8 0.00 0.00 0.00 92 1010.1
20260510121554 15 2 1.6 4.8 0.00 0.00 0.00 94 1010.3
20260510121051 15 302 3.2 6.4 0.00 0.00 0.00 94 1010.3
20260510120549 15 12 3.2 4.8 0.00 0.00 0.00 95 1010.2
20260510120044 14 322 4.8 8.0 0.00 0.00 0.00 96 1010.2
20260510115541 14 23 4.8 4.8 0.00 0.00 0.00 97 1010.1
20260510115038 13 339 3.2 6.4 0.00 0.00 0.00 98 1009.9
20260510114534 13 6 3.2 3.2 0.00 0.00 0.00 98 1009.8
20260510114030 13 324 4.8 6.4 0.00 0.00 0.00 99 1009.9
20260510113526 13 329 3.2 4.8 0.00 0.00 0.00 99 1009.6
20260510113024 13 341 3.2 3.2 0.00 0.00 0.00 99 1009.9
20260510112520 13 359 3.2 4.8 0.00 0.00 0.00 99 1009.5
20260510112016 13 344 1.6 4.8 0.00 0.00 0.00 99 1009.6
20260510111513 13 9 3.2 4.8 0.00 0.00 0.00 99 1009.5
20260510111009 13 49 0.0 3.2 0.00 0.00 0.00 99 1009.2
20260510110505 12 318 3.2 4.8 0.00 0.00 0.00 99 1009.1
20260510110002 12 327 3.2 3.2 0.00 0.00 0.00 99 1009.0
20260510105456 12 8 3.2 3.2 0.00 0.00 0.00 99 1009.3
20260510104952 12 356 3.2 3.2 0.00 0.00 0.00 99 1009.0
20260510104449 12 49 0.0 3.2 0.00 0.00 0.00 99 1008.7
20260510103945 12 346 3.2 6.4 0.00 0.00 0.00 99 1008.9
20260510103443 12 18 0.0 4.8 0.00 0.00 0.00 99 1008.7
20260510102938 12 352 1.6 3.2 0.00 0.00 0.00 99 1008.6
20260510102434 12 9 1.6 3.2 0.00 0.00 0.00 99 1008.6
20260510101931 12 354 3.2 4.8 0.00 0.00 0.00 99 1008.6
20260510101429 12 347 3.2 4.8 0.00 0.00 0.00 99 1008.8
20260510100927 12 324 3.2 4.8 0.00 0.00 0.00 99 1008.6
20260510100423 11 348 3.2 3.2 0.00 0.00 0.00 99 1008.4
20260510095919 11 356 3.2 4.8 0.00 0.00 0.00 99 1008.5
20260510095415 12 0 3.2 4.8 0.00 0.00 0.00 99 1008.4
20260510094914 12 32 1.6 3.2 0.00 0.00 0.00 99 1008.4
20260510094409 11 49 1.6 3.2 0.00 0.00 0.00 99 1008.4
20260510093905 11 45 1.6 3.2 0.00 0.00 0.00 99 1008.4
20260510093401 11 29 3.2 3.2 0.00 0.00 0.00 99 1008.4
20260510092858 11 11 0.0 3.2 0.00 0.00 0.00 99 1008.6
20260510092355 12 114 1.6 1.6 0.00 0.00 0.00 99 1008.5
20260510091849 12 62 1.6 3.2 0.00 0.00 0.00 99 1008.3
20260510091347 12 17 3.2 3.2 0.00 0.00 0.00 99 1008.4
20260510090843 12 56 0.0 3.2 0.00 0.00 0.00 99 1008.3
20260510090340 12 41 1.6 3.2 0.00 0.00 0.00 99 1008.1
20260510085835 12 34 1.6 3.2 0.00 0.00 0.00 99 1008.1
20260510085330 12 9 0.0 3.2 0.00 0.00 0.00 99 1007.9
20260510084826 12 0 3.2 3.2 0.00 0.00 0.00 99 1007.9
20260510084324 12 3 1.6 3.2 0.00 0.00 0.00 99 1008.0
20260510083820 12 12 1.6 3.2 0.00 0.00 0.00 99 1007.7
20260510083317 12 17 3.2 3.2 0.00 0.00 0.00 99 1007.6
20260510082812 12 4 0.0 3.2 0.00 0.00 0.00 99 1007.5
20260510082310 12 12 3.2 4.8 0.00 0.00 0.00 99 1007.4
20260510081809 12 356 0.0 3.2 0.00 0.00 0.00 99 1007.6
20260510081305 12 4 1.6 3.2 0.00 0.00 0.00 99 1007.4
20260510080801 12 2 1.6 3.2 0.00 0.00 0.00 99 1007.4
20260510080255 12 13 0.0 3.2 0.00 0.00 0.00 99 1007.4
20260510075753 12 0 3.2 3.2 0.00 0.00 0.00 99 1007.4
20260510075250 12 13 3.2 3.2 0.00 0.00 0.00 99 1007.4
20260510074747 12 8 1.6 3.2 0.00 0.00 0.00 99 1007.2
20260510074244 12 15 0.0 3.2 0.00 0.00 0.00 99 1007.2
20260510073740 12 28 1.6 3.2 0.00 0.00 0.00 99 1007.2
20260510073236 12 46 3.2 3.2 0.00 0.00 0.00 99 1007.0
20260510072731 12 62 0.0 3.2 0.00 0.00 0.00 99 1007.0
20260510072228 12 48 1.6 3.2 0.00 0.00 0.00 99 1007.3
20260510071725 12 52 0.0 3.2 0.00 0.00 0.00 99 1007.1
20260510071222 12 32 3.2 3.2 0.00 0.00 0.00 99 1007.1
20260510070720 12 31 0.0 3.2 0.00 0.00 0.00 99 1007.0
20260510070217 12 51 1.6 3.2 0.00 0.00 0.00 99 1007.0
20260510065712 12 23 1.6 3.2 0.00 0.00 0.00 99 1006.9
20260510065208 12 51 1.6 3.2 0.00 0.00 0.00 99 1007.2
20260510064705 12 58 1.6 3.2 0.00 0.00 0.00 99 1007.0
20260510064203 13 15 3.2 3.2 0.00 0.00 0.00 99 1006.9
20260510063659 13 6 1.6 3.2 0.00 0.00 0.00 99 1006.9
20260510063155 13 8 1.6 3.2 0.00 0.00 0.00 99 1007.0
20260510062652 13 317 0.0 3.2 0.00 0.00 0.00 99 1007.1
20260510062148 13 348 0.0 3.2 0.00 0.00 0.00 99 1006.8
20260510061643 13 5 0.0 3.2 0.00 0.00 0.00 99 1006.9
20260510061141 13 77 1.6 3.2 0.00 0.00 0.00 99 1006.9
20260510060637 13 30 0.0 3.2 0.00 0.00 0.00 99 1006.9
20260510060134 13 58 1.6 3.2 0.00 0.00 0.00 99 1007.0
20260510055630 13 11 0.0 3.2 0.00 0.00 0.00 99 1006.8
20260510055128 13 1 3.2 3.2 0.00 0.00 0.00 99 1006.9
20260510054623 13 5 0.0 3.2 0.00 0.00 0.00 99 1007.0
20260510054119 13 352 0.0 3.2 0.00 0.00 0.00 99 1007.0
20260510053618 13 68 3.2 3.2 0.00 0.00 0.00 99 1007.1
20260510053115 13 3 3.2 3.2 0.00 0.00 0.00 98 1007.2
20260510052611 13 10 1.6 3.2 0.00 0.00 0.00 98 1007.2
20260510052108 13 59 3.2 3.2 0.00 0.00 0.00 98 1007.3
20260510051603 13 41 1.6 3.2 0.00 0.00 0.00 98 1007.1
20260510051101 13 14 1.6 3.2 0.00 0.00 0.00 98 1007.4
20260510050558 13 42 3.2 3.2 0.00 0.00 0.00 98 1006.9
20260510050055 14 46 1.6 3.2 0.00 0.00 0.00 98 1007.1
20260510045552 13 17 1.6 3.2 0.00 0.00 0.00 98 1007.0
20260510045048 14 17 0.0 3.2 0.00 0.00 0.00 98 1007.2
20260510044544 14 28 1.6 3.2 0.00 0.00 0.00 98 1007.0
20260510044042 14 5 3.2 3.2 0.00 0.00 0.00 98 1007.4
20260510043537 14 359 0.0 3.2 0.00 0.00 0.00 97 1007.3
20260510043033 14 350 3.2 3.2 0.00 0.00 0.00 97 1007.2
20260510042527 14 0 3.2 3.2 0.00 0.00 0.00 96 1007.0
20260510042022 14 32 3.2 3.2 0.00 0.00 0.00 96 1007.1
20260510041520 15 59 3.2 3.2 0.00 0.00 0.00 96 1007.2
20260510041017 15 30 3.2 3.2 0.00 0.00 0.00 95 1007.0
20260510040514 15 37 0.0 3.2 0.00 0.00 0.00 95 1007.2
20260510040009 15 59 1.6 3.2 0.00 0.00 0.00 95 1007.0
20260510035507 15 53 1.6 3.2 0.00 0.00 0.00 95 1007.2
20260510035005 15 39 0.0 3.2 0.00 0.00 0.00 94 1007.0
20260510034505 15 42 1.6 3.2 0.00 0.00 0.00 94 1007.1
20260510034000 15 49 1.6 3.2 0.00 0.00 0.00 94 1007.1
20260510033456 15 22 0.0 1.6 0.00 0.00 0.00 94 1007.0
20260510032954 15 32 1.6 3.2 0.00 0.00 0.00 94 1006.9
20260510032451 15 40 0.0 1.6 0.00 0.00 0.00 93 1007.0
20260510031951 15 35 0.0 1.6 0.00 0.00 0.00 93 1006.8
20260510031447 15 23 0.0 3.2 0.00 0.00 0.00 93 1007.0
20260510030943 15 64 1.6 3.2 0.00 0.00 0.00 93 1006.8
20260510030438 15 44 0.0 3.2 0.00 0.00 0.00 93 1006.7
20260510025936 15 4 1.6 3.2 0.00 0.00 0.00 93 1006.8
20260510025433 15 356 1.6 3.2 0.00 0.00 0.00 92 1006.8
20260510024930 15 33 0.0 3.2 0.00 0.00 0.00 91 1006.5
20260510024426 16 12 1.6 3.2 0.00 0.00 0.00 90 1006.7
20260510023923 16 20 0.0 1.6 0.00 0.00 0.00 90 1006.7
20260510023419 16 67 1.6 3.2 0.00 0.00 0.00 90 1006.6
20260510022917 16 60 1.6 3.2 0.00 0.00 0.00 89 1006.8
20260510022415 16 38 3.2 3.2 0.00 0.00 0.00 89 1006.4
20260510021914 16 62 1.6 3.2 0.00 0.00 0.00 88 1006.5
20260510021413 16 53 0.0 3.2 0.00 0.00 0.00 88 1006.9
20260510020909 16 62 0.0 3.2 0.00 0.00 0.00 88 1006.8
20260510020404 16 357 3.2 3.2 0.00 0.00 0.00 87 1006.7
20260510015900 16 352 1.6 3.2 0.00 0.00 0.00 86 1006.5
20260510015356 17 2 1.6 3.2 0.00 0.00 0.00 86 1006.4
20260510014851 17 25 0.0 3.2 0.00 0.00 0.00 85 1006.3
20260510014349 17 72 1.6 3.2 0.00 0.00 0.00 85 1006.2
20260510013845 17 67 3.2 3.2 0.00 0.00 0.00 84 1006.3
20260510013340 17 42 3.2 4.8 0.00 0.00 0.00 84 1006.4
20260510012835 17 129 0.0 3.2 0.00 0.00 0.00 84 1006.3
20260510012330 17 130 1.6 4.8 0.00 0.00 0.00 83 1006.1
20260510011825 17 175 0.0 3.2 0.00 0.00 0.00 83 1006.1
20260510011320 17 43 1.6 3.2 0.00 0.00 0.00 83 1005.9
20260510010817 17 49 0.0 3.2 0.00 0.00 0.00 83 1005.9
20260510010315 17 66 3.2 3.2 0.00 0.00 0.00 83 1006.0
20260510005811 17 93 3.2 3.2 0.00 0.00 0.00 83 1006.0
20260510005307 17 358 3.2 3.2 0.00 0.00 0.00 82 1005.9
20260510004805 17 57 3.2 4.8 0.00 0.00 0.00 82 1005.9
20260510004303 18 23 0.0 3.2 0.00 0.00 0.00 82 1006.0
20260510003800 18 102 3.2 3.2 0.00 0.00 0.00 82 1005.9
20260510003257 18 19 3.2 3.2 0.00 0.00 0.00 81 1005.8
20260510002755 18 86 1.6 4.8 0.00 0.00 0.00 80 1005.8
20260510002253 18 109 3.2 4.8 0.00 0.00 0.00 80 1005.7
20260510001749 18 97 3.2 8.0 0.00 0.00 0.00 79 1005.7
20260510001248 18 113 1.6 9.7 0.00 0.00 0.00 78 1005.8
20260510000743 18 46 1.6 4.8 0.00 0.00 0.00 76 1005.6
20260510000241 18 24 0.0 8.0 0.00 0.00 0.00 75 1005.5
20260509235737 18 350 1.6 4.8 0.00 0.00 0.00 76 1005.6
20260509235234 19 96 4.8 6.4 0.00 0.00 0.00 76 1005.7
20260509234730 19 94 4.8 6.4 0.00 0.00 0.00 75 1005.6
20260509234227 19 101 3.2 6.4 0.00 0.00 0.00 76 1005.6
20260509233725 19 6 0.0 4.8 0.00 0.00 0.00 76 1005.7
20260509233223 19 97 4.8 6.4 0.00 0.00 0.00 76 1005.4
20260509232718 19 61 4.8 8.0 0.00 0.00 0.00 75 1005.4
20260509232216 19 105 3.2 8.0 0.00 0.00 0.00 75 1005.3
20260509231712 20 99 3.2 6.4 0.00 0.00 0.00 75 1005.4
20260509231209 20 96 3.2 6.4 0.00 0.00 0.00 76 1005.4
20260509230706 19 40 3.2 6.4 0.00 0.00 0.00 77 1005.4
20260509230157 19 95 4.8 8.0 0.00 0.00 0.00 77 1005.3
20260509225653 19 147 6.4 6.4 0.00 0.00 0.00 77 1005.5
20260509225149 19 156 6.4 8.0 0.00 0.00 0.00 77 1005.5
20260509224645 19 185 4.8 4.8 0.00 0.00 0.00 77 1005.3
20260509224142 19 79 3.2 6.4 0.00 0.00 0.00 76 1005.3
20260509223639 19 107 3.2 9.7 0.00 0.00 0.00 76 1005.4
20260509223136 20 138 4.8 14.5 0.00 0.00 0.00 76 1005.7
20260509222633 20 181 3.2 12.9 0.00 0.00 0.00 74 1005.6
20260509222128 20 85 6.4 6.4 0.00 0.00 0.00 74 1005.6
20260509221624 20 164 3.2 4.8 0.00 0.00 0.00 74 1005.5
20260509221120 20 73 3.2 8.0 0.00 0.00 0.00 73 1005.4
20260509220616 20 237 3.2 8.0 0.00 0.00 0.00 73 1005.4
20260509220113 20 171 3.2 4.8 0.00 0.00 0.00 72 1005.5
20260509215609 21 60 3.2 4.8 0.00 0.00 0.00 70 1005.3
20260509215106 20 176 3.2 8.0 0.00 0.00 0.00 70 1005.4
20260509214603 20 142 6.4 9.7 0.00 0.00 0.00 71 1005.4
20260509214059 20 84 3.2 8.0 0.00 0.00 0.00 72 1005.4
20260509213555 20 205 4.8 4.8 0.00 0.00 0.00 70 1005.3
20260509213052 20 319 3.2 8.0 0.00 0.00 0.00 70 1005.3
20260509212550 21 108 3.2 6.4 0.00 0.00 0.00 72 1005.3
20260509212046 21 75 4.8 8.0 0.00 0.00 0.00 71 1005.3
20260509211542 21 179 3.2 6.4 0.00 0.00 0.00 70 1005.0
20260509211039 20 146 3.2 9.7 0.00 0.00 0.00 70 1005.0
20260509210536 20 94 6.4 6.4 0.00 0.00 0.00 72 1004.9
20260509210032 20 123 6.4 9.7 0.00 0.00 0.00 72 1005.1
20260509205526 20 137 3.2 12.9 0.00 0.00 0.00 72 1005.1
20260509205022 20 84 3.2 11.3 0.00 0.00 0.00 71 1005.1
20260509204519 20 95 3.2 6.4 0.00 0.00 0.00 70 1005.0
20260509204015 20 120 3.2 14.5 0.00 0.00 0.00 71 1005.1
20260509203511 21 0 3.2 11.3 0.00 0.00 0.00 69 1005.1
20260509203009 21 248 3.2 6.4 0.00 0.00 0.00 69 1005.3
20260509202503 20 76 6.4 12.9 0.00 0.00 0.00 69 1005.3
20260509201959 21 145 6.4 6.4 0.00 0.00 0.00 69 1005.4
20260509201454 21 126 4.8 8.0 0.00 0.00 0.00 69 1005.5
20260509200952 21 154 0.0 8.0 0.00 0.00 0.00 68 1005.6
20260509200446 21 282 6.4 6.4 0.00 0.00 0.00 68 1005.5
20260509195943 21 101 11.3 11.3 0.00 0.00 0.00 68 1005.3
20260509195439 21 139 3.2 12.9 0.00 0.00 0.00 70 1005.7
20260509194938 20 165 3.2 8.0 0.00 0.00 0.00 71 1005.7
20260509194434 20 157 8.0 8.0 0.00 0.00 0.00 71 1005.7
20260509193931 20 105 1.6 6.4 0.00 0.00 0.00 71 1005.8
20260509193431 20 106 9.7 9.7 0.00 0.00 0.00 72 1005.9
20260509192927 20 75 3.2 12.9 0.00 0.00 0.00 72 1005.8